Tracking 30074 objects as of 13-Jan-2025
HD Live streaming from Space Station
objects crossing your sky now

STARLINK-5583

Track STARLINK-5583 now!
10-day predictions
STARLINK-5583 is classified as:


NORAD ID: 55768
Int'l Code: 2023-028AD
Perigee: 577.3 km
Apogee: 581.2 km
Inclination: 70.0 °
Period: 96.1 minutes
Semi major axis: 6950 km
RCS: Unknown
Launch date: March 3, 2023
Source: United States (US)
Launch site: AIR FORCE WESTERN TEST RANGE (AFWTR)
Your satellite tracking list
Your tracking list is empty




NASA's NSSDC Master Catalog

Two Line Element Set (TLE):
1 55768U 23028AD  25013.25261675  .00000660  00000-0  63085-4 0  9999
2 55768  69.9992 204.6066 0002814 269.7197  90.3639 14.98317177103559
Source of the keplerian elements: AFSPC